[[{"header":{"parameterUnit":"m.s-1","parameterCategory":1,"la1":30.2991,"la2":30.254,"lo1":-89.0895,"lo2":-89.0444,"dy":0.0017,"dx":0.0017,"nx":28,"ny":28,"refTime":"2023-08-14T09:00:00:Z","depth":0,"parameterNumber":2,"parameterNumberName":"U-component_of_WINDS"},"data":[0,0,0,0,0,0,0,0,0,0,0,0,0,0,0,0,0,0,0,0,0,0,0,0,0,0,0,0,0,0,0,0,0,0,0,0,0,0,0,0,0,0,0,0,0,0,0,0,0,0,0,0,0,0,0,0,0,0,1.9479,1.9482,0,1.9738,1.9741,1.9744,1.9873,1.9873,1.9873,1.9873,2.0141,2.0148,2.0155,0,0,0,0,0,0,0,0,0,0,0,0,0,1.9098,1.9105,1.9478,1.9482,1.9485,1.9737,1.9741,1.9745,1.9873,1.9873,1.9873,1.9873,2.0139,2.0147,2.0156,0,0,0,0,0,0,0,0,0,0,0,0,0,1.9301,1.9107,1.9478,1.9579,1.9591,1.9737,1.9741,1.9745,1.9873,1.9873,1.9873,1.9873,2.0136,2.0146,2.0157,2.0222,0,0,2.019,2.0194,0,0,0,0,0,0,0,0,1.9289,1.9315,1.9561,1.9573,1.9586,1.9773,1.9706,1.9906,1.9873,1.9766,1.9873,1.9873,2.0019,2.0039,2.0088,2.0235,2.0247,2.0191,2.0197,2.0202,2.0205,0,0,0,0,0,0,0,1.9275,1.9304,1.9581,1.9565,1.958,1.9613,1.9642,1.9744,1.9889,1.9775,1.9785,1.9814,2.0026,2.0077,2.0095,2.0251,2.019,2.02,2.0206,2.0211,2.0466,2.0467,0,0,0,0,0,0,1.9244,1.9292,1.9573,1.9589,1.9435,1.962,1.9652,1.9713,1.9888,1.9915,1.9813,1.9819,2.0059,2.0082,2.0105,2.0195,2.0202,2.0212,2.0218,2.0466,2.0466,2.0467,0,0,0,0,0,0,1.9235,1.9268,1.9563,1.9443,1.9483,1.9626,1.9694,1.9718,1.977,1.9917,1.9944,1.9839,2.006,2.009,2.0193,2.0206,2.0216,2.0226,2.0465,2.0466,2.0466,2.0373,0,0,0,0,0,0,1.9224,1.9264,1.929,1.9443,1.9489,1.9644,1.9694,1.9723,1.9787,1.9797,1.9949,1.9974,2.0062,2.0176,2.0203,2.022,2.0235,2.0465,2.0466,2.0466,2.0375,2.037,2.0365,0,0,0,0,0,1.921,1.9253,1.929,1.9323,1.9524,1.9645,1.9672,1.9771,1.9788,1.9816,1.991,1.9969,2.0199,2.0185,2.0217,2.0238,2.0465,2.0465,2.0466,2.0377,2.0371,2.0365,0,0,0,0,0,0,1.9099,1.9275,1.9318,1.9412,1.9512,1.9666,1.9704,1.9761,1.986,1.9865,1.9985,2.0018,2.011,2.0184,2.0165,2.0311,2.0338,2.0345,2.0259,2.0254,2.025,2.023,2.0243,0,0,0,0,0,1.9085,1.9168,1.9318,1.9386,1.9434,1.956,1.9616,1.9685,1.9794,1.9837,1.994,2.0044,2.0141,2.0202,2.0298,2.0386,2.0422,2.0416,2.0411,2.0406,2.0412,2.0465,2.0465,2.0469,2.0469,2.0469,0,0,1.9059,1.9165,1.921,1.9367,1.9452,1.9536,1.9595,1.9681,1.9745,1.9851,1.9954,2.0032,2.0158,2.0253,2.03,2.0318,2.0418,2.0408,2.0403,2.0411,2.0466,2.0465,2.0465,2.047,2.047,2.047,0,0,1.9052,1.914,1.9208,1.9292,1.9421,1.9504,1.952,1.9666,1.9722,1.9827,1.9908,1.9986,2.0149,2.0235,2.03,2.0326,2.0384,2.0354,2.0328,2.0379,2.0379,2.0379,2.039,2.0392,2.0358,2.0358,2.0358,0,1.9003,1.9131,1.9235,1.9317,1.9384,1.9482,1.9552,1.963,1.9783,1.9828,1.9845,2.0052,2.0143,2.026,2.0266,2.0315,2.0339,2.0338,2.037,2.0372,2.0373,2.0385,2.0388,2.0354,2.0354,2.0355,2.0355,0,1.9065,1.9153,1.9192,1.9337,1.9408,1.9483,1.96,1.966,1.9721,1.9803,1.991,2.0022,2.0144,2.0176,2.0238,2.0303,2.031,2.0347,2.0376,2.0367,2.038,2.0385,2.0347,2.0349,2.035,2.0351,0,0,1.8997,1.9198,1.9211,1.9278,1.9427,1.9498,1.9577,1.9695,1.9745,1.9848,1.9919,2.0054,2.0089,2.0163,2.0235,2.0279,2.0294,2.0311,2.0316,2.0305,2.0375,2.0347,2.035,2.0333,2.0334,2.0335,2.0365,0,1.9013,1.916,1.9255,1.9365,1.9448,1.9542,1.9613,1.9712,1.979,1.9874,1.9961,2.0055,2.0094,2.0139,2.0187,2.0282,2.031,2.0281,2.0402,2.0405,2.0368,2.0357,2.0328,2.035,2.037,2.0371,2.0372,0,1.9051,1.915,1.9267,1.9407,1.9446,1.9507,1.9623,1.97,1.9816,1.987,1.9951,2.0025,2.0114,2.0135,2.0261,2.0239,2.0294,2.0348,2.0352,2.0368,2.0388,2.0374,2.036,2.0363,2.038,2.038,2.0379,0,1.8991,1.9154,1.9245,1.93,1.9465,1.9506,1.9577,1.9692,1.9757,1.9859,1.9902,2.0013,2.0074,2.0159,2.0261,2.0266,2.0377,2.0406,2.0426,2.0423,2.0446,2.0444,2.0442,2.0479,2.0479,2.0479,2.0479,0,1.8999,1.9068,1.922,1.9277,1.9356,1.9466,1.9542,1.9622,1.9723,1.9798,1.9886,1.9955,2.0084,2.0168,2.0248,2.0341,2.0368,2.0416,2.0436,2.0408,2.0402,2.0447,2.0449,2.048,2.0479,2.0479,2.0479,0,1.8946,1.9051,1.9157,1.9305,1.9344,1.9396,1.9523,1.9582,1.9665,1.9758,1.9787,1.9917,2.0021,2.0131,2.0272,2.0326,2.0416,2.0444,2.0377,2.0389,2.0403,2.0401,2.0431,2.0442,2.0469,2.0469,2.0468,0,1.8945,1.9,1.9153,1.9208,1.9277,1.9365,1.9432,1.9542,1.9608,1.9743,1.9786,1.9896,1.9991,2.0153,2.0261,2.037,2.0403,2.0406,2.042,2.039,2.0405,2.04,2.0407,2.0401,2.04,2.04,2.0399,0,1.8932,1.8982,1.9073,1.9183,1.9259,1.9351,1.9447,1.9488,1.9617,1.9687,1.9793,1.9866,2.001,2.012,2.0241,2.0317,2.038,2.0394,2.0405,2.0377,2.0336,2.036,2.0365,2.0393,2.0393,2.0394,2.0394,2.0395,1.8907,1.896,1.9076,1.9175,1.9258,1.9345,1.9408,1.9499,1.9589,1.9714,1.9774,1.9881,1.9997,2.0167,2.024,2.0327,2.0345,2.036,2.0365,2.0367,2.036,2.0321,2.0349,2.035,2.035,2.035,2.035,0,1.89,1.8979,1.9069,1.9199,1.9277,1.9328,1.9437,1.9499,1.9592,1.9693,1.9784,1.9907,2.0014,2.013,2.0244,2.0291,2.0323,2.0317,2.0315,2.0332,2.0337,2.0317,2.0289,2.0289,2.0289,2.0289,2.0289,2.0289,1.8905,1.8998,1.9061,1.9196,1.9276,1.938,1.9438,1.952,1.9601,1.9734,1.9823,1.9897,2.0006,2.0128,2.0228,2.026,2.0298,2.0284,2.0324,2.0327,2.0331,2.0336,2.0318,2.0291,2.0291,2.0313,2.0313,2.0313]},{"header":{"parameterUnit":"m.s-1","parameterCategory":1,"la1":30.2991,"la2":30.254,"lo1":-89.0895,"lo2":-89.0444,"dy":0.0017,"dx":0.0017,"nx":28,"ny":28,"refTime":"2023-08-14T09:00:00:Z","depth":0,"parameterNumber":3,"parameterNumberName":"V-component_of_WINDS"},"data":[0,0,0,0,0,0,0,0,0,0,0,0,0,0,0,0,0,0,0,0,0,0,0,0,0,0,0,0,0,0,0,0,0,0,0,0,0,0,0,0,0,0,0,0,0,0,0,0,0,0,0,0,0,0,0,0,0,0,0.6734,0.6735,0,0.6831,0.6832,0.6833,0.687,0.687,0.687,0.6869,0.697,0.6972,0.6975,0,0,0,0,0,0,0,0,0,0,0,0,0,0.6584,0.6586,0.6734,0.6735,0.6736,0.6831,0.6832,0.6833,0.687,0.687,0.687,0.6869,0.6969,0.6972,0.6976,0,0,0,0,0,0,0,0,0,0,0,0,0,0.6661,0.6587,0.6734,0.6766,0.677,0.6831,0.6832,0.6834,0.687,0.687,0.6869,0.6869,0.6968,0.6972,0.6976,0.7012,0,0,0.699,0.6992,0,0,0,0,0,0,0,0,0.6657,0.6667,0.676,0.6764,0.6768,0.6838,0.6816,0.6894,0.687,0.6832,0.6869,0.6869,0.6926,0.6934,0.6953,0.7017,0.7021,0.699,0.6993,0.6995,0.6996,0,0,0,0,0,0,0,0.6652,0.6663,0.6772,0.6761,0.6766,0.6777,0.6787,0.6831,0.6881,0.6835,0.6838,0.6849,0.6928,0.6949,0.6956,0.7023,0.699,0.6994,0.6997,0.6998,0.7124,0.7125,0,0,0,0,0,0,0.664,0.6658,0.6769,0.6775,0.671,0.678,0.6792,0.6816,0.688,0.6889,0.685,0.6851,0.6942,0.6951,0.696,0.7008,0.6995,0.6999,0.7001,0.7123,0.7124,0.7125,0,0,0,0,0,0,0.6637,0.665,0.6765,0.6718,0.6733,0.6783,0.681,0.6818,0.6839,0.6891,0.69,0.6861,0.6942,0.6953,0.6999,0.7012,0.7001,0.7005,0.7123,0.7124,0.7125,0.7103,0,0,0,0,0,0,0.6633,0.6649,0.6662,0.6718,0.6735,0.6803,0.6811,0.682,0.6846,0.6848,0.6904,0.6913,0.6942,0.6993,0.7004,0.7018,0.7008,0.7122,0.7123,0.7124,0.7103,0.7104,0.7104,0,0,0,0,0,0.6627,0.6651,0.6662,0.6675,0.6753,0.6803,0.6813,0.6846,0.6847,0.6861,0.6895,0.6911,0.7009,0.6997,0.701,0.7025,0.7121,0.7123,0.7124,0.7103,0.7103,0.7104,0,0,0,0,0,0,0.6595,0.6659,0.6672,0.6715,0.6753,0.6809,0.6828,0.6845,0.6884,0.6885,0.6925,0.6937,0.698,0.7008,0.6993,0.7065,0.7066,0.707,0.7046,0.7047,0.7047,0.704,0.7012,0,0,0,0,0,0.6593,0.6628,0.6682,0.6715,0.6734,0.6778,0.6801,0.6823,0.6865,0.6881,0.6918,0.6959,0.6999,0.7024,0.7064,0.7108,0.7121,0.7125,0.7125,0.7125,0.7128,0.7156,0.7159,0.713,0.713,0.713,0,0,0.659,0.6629,0.6648,0.671,0.6742,0.6779,0.6791,0.6828,0.6856,0.6887,0.6933,0.6962,0.701,0.7056,0.7078,0.708,0.714,0.7127,0.7127,0.713,0.7158,0.7161,0.7163,0.7131,0.7131,0.7131,0,0,0.6601,0.6634,0.6666,0.6699,0.6748,0.6777,0.6785,0.6839,0.686,0.6907,0.6931,0.6966,0.7033,0.7067,0.7093,0.7121,0.7138,0.7133,0.7135,0.7161,0.7164,0.7166,0.7178,0.7181,0.7136,0.7136,0.7136,0,0.659,0.6645,0.668,0.6717,0.6744,0.6775,0.6808,0.6839,0.6898,0.6917,0.6918,0.7006,0.704,0.7095,0.7102,0.7122,0.7133,0.7126,0.716,0.7163,0.7166,0.7178,0.7182,0.7135,0.7135,0.7135,0.7135,0,0.6631,0.6669,0.6689,0.6746,0.6776,0.6811,0.6852,0.6879,0.6899,0.6929,0.6978,0.7021,0.707,0.7085,0.7105,0.7145,0.7145,0.7153,0.7154,0.7167,0.7179,0.7184,0.7134,0.7134,0.7134,0.7135,0,0,0.6623,0.6702,0.6708,0.6736,0.6794,0.6825,0.6862,0.6911,0.6934,0.6975,0.7008,0.7066,0.7075,0.7105,0.7129,0.7153,0.7175,0.7158,0.716,0.7161,0.7224,0.7218,0.7222,0.7186,0.7187,0.7188,0.722,0,0.6644,0.6711,0.6745,0.6799,0.6836,0.6866,0.69,0.694,0.6969,0.7006,0.7039,0.708,0.7088,0.7106,0.7131,0.7167,0.7188,0.7165,0.722,0.7221,0.7207,0.7228,0.7221,0.7249,0.7225,0.7226,0.7226,0,0.6676,0.6717,0.6775,0.6831,0.6848,0.6877,0.6926,0.696,0.7007,0.7027,0.7062,0.7086,0.7129,0.7128,0.7189,0.7172,0.7197,0.7218,0.722,0.7227,0.7225,0.7237,0.7259,0.7263,0.7234,0.7233,0.7232,0,0.6667,0.6737,0.6781,0.6804,0.687,0.689,0.6919,0.6965,0.6993,0.7037,0.7056,0.7104,0.713,0.7167,0.7205,0.72,0.7263,0.7264,0.7282,0.7281,0.7294,0.7293,0.7322,0.7308,0.7308,0.7308,0.7308,0,0.6686,0.672,0.6778,0.6805,0.6845,0.6885,0.6924,0.6955,0.6997,0.7032,0.7062,0.7095,0.7142,0.7181,0.721,0.7258,0.7269,0.7288,0.7295,0.7285,0.7283,0.7302,0.7302,0.7309,0.7309,0.7309,0.7309,0,0.6682,0.6722,0.6772,0.6832,0.6848,0.6875,0.6926,0.6955,0.6987,0.7031,0.7044,0.7095,0.7143,0.7184,0.7247,0.7267,0.7316,0.7325,0.73,0.7304,0.7321,0.7319,0.7363,0.7372,0.7352,0.7352,0.7352,0,0.6692,0.6719,0.6782,0.6808,0.6836,0.6877,0.6906,0.6947,0.6977,0.7035,0.7057,0.7107,0.7149,0.7225,0.7268,0.7317,0.7328,0.734,0.7335,0.7326,0.733,0.7328,0.7332,0.734,0.734,0.734,0.734,0,0.6706,0.6725,0.6766,0.6815,0.6849,0.689,0.6931,0.6951,0.7,0.7033,0.7082,0.7115,0.718,0.7231,0.7285,0.7316,0.7337,0.7342,0.7349,0.7339,0.7325,0.7335,0.7302,0.734,0.734,0.734,0.734,0.734,0.671,0.6737,0.6786,0.6832,0.6868,0.6906,0.6937,0.6974,0.7015,0.7072,0.7094,0.7145,0.7195,0.727,0.7302,0.7344,0.7347,0.7356,0.7359,0.7361,0.736,0.7317,0.7353,0.7353,0.7354,0.7354,0.7354,0,0.6727,0.6761,0.6802,0.686,0.6897,0.6913,0.6961,0.6991,0.7035,0.708,0.7121,0.718,0.723,0.7278,0.733,0.7355,0.7366,0.7367,0.7366,0.7374,0.7354,0.7343,0.7358,0.7358,0.7358,0.7358,0.7358,0.7358,0.674,0.6787,0.6812,0.6878,0.6912,0.6962,0.6988,0.7025,0.7061,0.7125,0.7167,0.7198,0.7245,0.7302,0.7349,0.7362,0.7381,0.738,0.7395,0.7376,0.7375,0.7374,0.7364,0.7383,0.7383,0.7412,0.7413,0.7413]}]]